Wind_Speed
52 54 57 61 63 58 47 33 22 25 23 10 15 18 14 12 11 11 10 10 10 9 6 8 5 4 4 6 8 4 6 2 2 4 2 4 4 4 3 4 3 2 2 1
52 54 59 62 59 51 41 32 29 25 25 23 22 20 15 18 16 12 16 10 12 10 10 4 6 5 4 6 6 4 5 4 2 2 4 8 6 8 5 3 3 2 4 2
52 55 59 59 54 44 38 35 29 27 35 28 19 23 19 20 16 18 17 14 12 10 11 9 5 5 5 5 4 5 2 3 4 3 1 3 4 7 8 3 3 2 3 3
52 56 58 57 48 41 37 37 32 29 29 27 24 23 20 15 16 18 14 16 16 12 8 8 8 7 5 4 6 4 2 2 4 5 7 8 8 8 7 7 5 3 5 5
51 55 56 52 43 38 39 37 29 28 24 21 20 23 20 19 18 19 18 18 16 15 13 10 9 9 8 8 6 5 4 1 2 3 3 6 9 9 11 8 10 6 7 4
50 52 53 48 38 35 37 34 30 28 28 26 27 25 19 18 13 16 15 14 13 13 12 10 10 11 11 10 9 6 6 3 1 2 3 3 5 11 12 10 9 10 9 9
48 49 48 43 36 36 32 32 27 24 27 25 23 18 15 14 15 14 13 12 13 11 10 7 8 7 9 10 9 10 8 4 3 1 2 2 4 7 9 13 11 11 10 7
45 45 43 39 31 33 31 29 28 26 26 22 17 16 15 13 12 14 14 15 14 10 8 4 4 4 4 7 9 11 7 5 3 2 7 7 5 5 7 5 12 13 11 8
42 42 39 35 28 26 27 28 27 24 22 23 18 14 12 11 9 11 16 14 14 10 7 4 4 4 5 5 5 11 11 7 4 3 2 1 3 1 2 4 1 7 8 6
40 39 36 32 26 22 25 23 25 24 21 20 17 17 15 12 11 11 12 12 13 9 5 6 4 3 4 4 5 9 6 7 9 5 3 2 5 2 1 1 7 14 14 15
38 37 33 30 25 20 21 24 21 22 19 21 19 19 17 15 14 14 12 7 11 7 7 4 3 3 4 4 6 6 8 4 4 3 0 1 5 4 3 4 9 17 19 23
35 35 31 29 24 19 19 21 21 19 17 18 19 19 17 16 16 15 14 11 10 8 6 5 3 3 3 4 2 6 4 5 4 3 3 5 9 11 11 11 18 26 30 33
33 33 29 27 23 19 18 19 21 20 15 14 17 22 19 17 15 14 14 13 11 11 9 6 4 3 4 3 3 5 5 8 7 8 7 11 16 18 22 26 33 38 38 41
31 31 26 25 21 19 18 18 19 19 16 11 13 17 18 15 13 13 13 13 13 12 10 8 6 3 3 3 4 3 5 8 13 12 15 20 22 16 31 38 43 46 46 51
29 29 24 23 21 19 17 15 18 18 18 12 10 11 18 14 11 10 9 9 10 10 10 8 6 5 3 1 2 2 6 11 17 20 25 31 36 42 47 54 57 59 59 59
28 28 22 21 19 18 19 17 19 21 23 13 6 8 15 15 9 7 6 6 7 8 8 8 7 6 4 3 7 8 8 13 24 35 40 47 51 53 52 53 51 48 47 46
26 27 22 20 19 17 19 20 21 17 19 12 5 6 11 15 11 7 5 4 5 6 6 8 8 8 7 8 9 13 19 24 31 43 53 52 47 46 45 45 43 41 39 38
25 26 21 19 18 18 18 17 20 18 14 10 6 10 8 14 15 11 8 9 10 10 9 9 11 13 8 6 14 21 29 38 45 41 38 41 43 42 40 39 38 36 33 32
24 26 22 19 16 17 18 15 15 17 11 7 10 18 11 16 17 17 10 9 8 9 8 9 13 12 6 15 22 31 46 45 44 38 38 38 39 39 37 35 33 31 29 26
24 25 22 16 18 16 16 10 12 8 8 8 16 20 21 17 17 15 9 5 4 4 5 9 13 11 13 18 38 45 43 39 38 39 38 38 38 39 37 33 30 29 27 25
23 26 19 19 16 13 7 6 10 8 8 9 24 22 21 17 15 12 4 5 4 3 4 12 6 8 13 40 43 41 38 35 34 35 36 37 38 39 36 32 28 25 23 23
22 24 19 12 8 5 4 7 8 7 7 20 23 22 19 14 13 6 6 4 3 3 16 6 7 16 39 43 41 38 34 33 33 33 34 34 35 36 36 33 29 24 21 20
22 20 9 7 3 5 4 8 12 13 18 21 20 21 16 9 9 5 5 3 4 14 5 7 14 38 41 40 38 33 31 31 32 32 32 32 32 33 34 32 28 24 19 18
19 13 7 3 5 7 16 20 18 17 17 19 19 18 8 8 6 4 4 5 7 4 5 16 36 37 37 38 36 33 31 32 33 32 32 32 32 32 32 31 30 25 20 17
14 7 4 8 18 19 19 18 16 16 16 17 17 12 6 6 3 4 4 6 4 5 19 32 34 35 35 36 33 30 29 31 32 32 32 33 32 31 30 30 28 25 21 17
8 3 11 17 19 18 18 17 15 15 15 16 13 6 4 2 4 3 2 9 4 17 26 29 30 31 33 33 31 29 28 30 31 32 31 32 31 30 30 29 26 24 21 19
6 11 15 18 18 18 17 17 15 14 13 13 8 4 2 5 3 4 6 11 16 21 25 26 28 30 31 31 29 28 27 28 30 30 30 30 30 29 28 26 25 24 22 21
Wind_Direction
359 358 357 356 353 354 356 12 21 5 4 10 65 63 65 62 51 66 75 67 72 75 78 72 82 82 49 25 19 15 9 8 352 336 2 21 44 27 27 301 50 1 311 53
360 359 359 358 358 1 9 33 29 26 27 58 71 67 75 70 63 76 64 70 65 68 57 84 71 44 34 11 3 17 358 347 331 107 75 38 37 14 5 341 330 1 322 45
0 0 3 2 5 12 15 34 38 40 44 56 75 71 70 71 68 67 68 66 60 61 54 62 47 32 8 359 10 354 34 51 66 34 346 348 24 19 22 7 315 7 24 40
2 3 5 7 11 19 26 44 46 48 52 61 67 71 72 71 67 67 69 63 55 46 47 51 39 25 27 42 17 36 75 82 91 75 70 75 54 35 25 40 35 356 337 310
3 5 8 12 18 28 34 47 55 57 67 60 74 69 58 63 75 65 59 53 44 42 51 55 44 47 48 34 31 45 41 88 105 96 91 82 57 53 45 37 25 13 7 5
4 7 11 15 26 36 43 45 55 60 67 67 66 57 62 64 58 54 48 44 38 41 44 52 58 58 53 52 45 35 31 36 57 108 138 135 29 36 40 46 44 25 11 341
5 9 13 18 28 39 42 43 39 53 69 64 63 63 65 63 58 46 40 37 29 31 34 49 55 58 53 49 39 34 24 22 54 82 128 111 80 56 58 51 50 37 20 12
6 10 15 20 30 39 40 45 40 51 63 60 61 60 55 51 49 40 34 24 22 28 28 31 23 24 32 23 27 16 26 43 51 71 66 122 32 29 45 61 36 38 40 47
6 10 16 21 28 34 35 42 47 43 60 58 53 50 41 38 28 20 17 11 13 22 28 32 30 34 357 9 8 24 48 51 71 66 96 113 345 290 345 337 180 9 7 7
5 9 16 20 25 32 33 34 41 36 41 49 42 32 21 13 5 357 352 360 7 18 44 50 56 28 28 19 20 10 38 42 53 53 96 147 15 329 298 247 319 319 317 314
4 7 14 18 21 28 35 28 28 29 29 39 30 24 24 23 17 11 3 18 13 28 46 47 53 46 42 44 41 23 26 20 12 12 108 196 319 307 223 289 321 322 320 320
2 4 11 15 17 22 25 20 21 21 17 28 25 23 23 20 20 20 22 28 33 47 52 53 57 53 53 46 22 20 19 13 344 338 244 266 323 290 268 273 302 308 306 309
0 1 7 11 13 18 17 12 12 9 6 14 15 18 17 17 25 30 33 46 59 64 61 62 55 58 41 42 17 17 354 349 326 324 286 266 285 302 267 276 290 296 297 300
357 358 4 7 8 11 13 15 8 6 0 0 6 12 17 23 35 40 52 60 63 58 51 50 49 37 9 27 56 39 356 322 309 309 282 278 290 277 288 283 294 295 292 297
355 355 360 4 2 5 8 9 6 9 4 341 351 4 16 25 31 39 49 51 49 42 33 30 28 18 8 78 248 301 320 315 326 311 309 305 300 299 298 299 298 298 296 296
352 351 355 359 358 356 1 2 1 1 358 349 352 354 5 10 15 25 30 24 16 14 18 13 1 343 334 236 254 272 277 310 318 314 312 311 311 309 308 306 305 303 300 298
348 348 351 351 351 349 357 356 352 347 350 352 351 354 350 1 352 341 323 319 328 352 4 6 349 329 312 276 268 285 293 305 313 313 313 310 313 314 313 310 308 305 302 298
345 345 346 344 342 341 337 338 341 345 344 356 6 339 341 353 356 331 300 286 287 291 299 317 338 328 307 270 309 311 315 314 317 319 321 321 323 321 317 315 312 311 310 307
341 342 341 337 334 334 332 328 336 340 338 344 350 356 343 339 338 345 314 301 284 286 290 307 326 316 288 309 319 321 326 330 330 333 332 331 330 329 327 325 323 321 321 319
338 340 337 335 329 325 329 330 339 333 330 333 343 347 346 340 343 338 327 313 298 295 299 319 313 301 322 328 327 332 333 334 334 335 335 338 339 338 338 336 333 330 329 327
335 337 331 325 321 321 333 332 340 324 325 332 338 342 338 341 340 337 330 320 300 287 296 322 288 314 326 331 333 334 337 338 338 338 340 342 343 344 344 343 340 336 333 332
334 331 325 326 327 319 305 326 326 326 321 327 331 335 338 340 340 341 333 326 322 299 322 318 311 332 331 332 335 338 340 341 341 343 344 346 346 347 350 348 345 342 339 337
332 331 323 325 313 311 296 318 313 318 317 328 331 334 335 334 343 327 337 328 322 317 320 321 324 330 330 334 338 342 343 344 346 346 347 349 351 350 352 352 352 350 346 340
331 319 316 306 318 307 313 317 318 321 323 328 332 334 328 334 340 342 334 317 326 319 313 327 327 331 335 338 342 344 345 346 347 349 350 352 353 355 353 356 357 357 353 353
325 306 305 317 321 322 323 324 326 327 329 334 337 333 337 352 5 1 346 343 327 321 321 327 333 335 340 342 343 345 347 348 349 352 353 354 355 355 354 358 359 1 358 355
304 255 305 320 327 330 331 331 331 332 336 342 346 334 328 328 347 357 332 334 312 315 329 335 338 341 345 345 345 347 350 352 353 354 356 355 355 355 359 358 357 360 1 0
279 307 316 326 332 333 335 335 333 333 336 342 344 321 306 318 326 337 326 331 330 335 337 342 344 348 350 349 350 351 352 354 356 357 359 358 356 358 1 357 358 1 359 359
Height
3067 3056 3044 3032 3020 3009 2997 2987 2984 2981 2977 2976 2974 2978 2980 2982 2982 2982 2982 2984 2984 2985 2985 2986 2987 2989 2988 2987 2986 2986 2985 2984 2984 2984 2983 2982 2981 2981 2980 2978 2977 2976 2974 2976
3066 3055 3043 3030 3018 3004 2995 2988 2987 2985 2979 2976 2980 2982 2984 2985 2985 2984 2985 2986 2987 2987 2987 2989 2988 2989 2988 2987 2987 2986 2986 2985 2984 2983 2986 2984 2983 2982 2981 2979 2978 2977 2975 2977
3065 3054 3042 3029 3018 3007 2998 2989 2988 2987 2984 2985 2986 2986 2988 2988 2989 2989 2989 2990 2990 2989 2989 2989 2989 2989 2988 2987 2986 2986 2985 2985 2986 2986 2986 2986 2985 2983 2982 2980 2979 2978 2978 2978
3064 3053 3041 3030 3019 3010 3004 2995 2995 2995 2993 2992 2992 2992 2993 2993 2993 2993 2993 2993 2992 2991 2990 2990 2990 2989 2988 2988 2987 2986 2986 2986 2986 2986 2986 2985 2985 2984 2983 2982 2981 2981 2980 2979
3064 3053 3043 3034 3023 3015 3007 3001 3002 3000 2999 3000 2999 2998 2998 2998 2998 2997 2997 2996 2995 2994 2992 2992 2991 2990 2989 2989 2988 2987 2987 2987 2987 2987 2987 2987 2987 2986 2985 2983 2982 2981 2980 2979
3064 3054 3044 3035 3027 3020 3012 3011 3008 3007 3005 3005 3003 3003 3004 3003 3002 3001 3000 2999 2998 2996 2995 2993 2993 2992 2991 2990 2989 2988 2987 2987 2987 2988 2987 2987 2988 2988 2987 2985 2984 2983 2981 2980
3065 3055 3046 3038 3032 3024 3020 3017 3015 3011 3009 3009 3008 3009 3008 3007 3005 3004 3002 3001 2999 2998 2995 2995 2994 2993 2992 2992 2991 2989 2988 2987 2987 2987 2987 2988 2992 2990 2988 2987 2986 2984 2982 2980
3066 3057 3048 3041 3036 3030 3026 3022 3020 3016 3012 3013 3014 3012 3011 3009 3008 3006 3004 3002 3000 2997 2996 2996 2995 2995 2995 2993 2992 2990 2988 2987 2987 2988 2988 2992 2991 2990 2990 2988 2988 2985 2983 2982
3067 3059 3052 3045 3040 3035 3031 3027 3024 3022 3020 3018 3016 3015 3014 3012 3009 3007 3005 3003 3000 2998 2997 2996 2997 2997 2996 2995 2994 2992 2990 2988 2988 2988 2988 2989 2992 2990 2989 2988 2989 2986 2985 2983
3068 3061 3054 3048 3043 3039 3034 3031 3028 3025 3022 3020 3019 3017 3015 3012 3009 3007 3005 3003 3001 2999 2998 2997 2998 2998 2997 2996 2995 2994 2992 2991 2990 2990 2990 2991 2990 2989 2988 2988 2992 2984 2983 2982
3069 3062 3056 3050 3046 3041 3038 3034 3030 3028 3025 3023 3020 3017 3015 3012 3010 3007 3005 3003 3001 3000 2998 2999 2998 2998 2998 2997 2997 2996 2994 2993 2992 2991 2991 2992 2989 2988 2988 2987 2983 2981 2979 2976
3070 3063 3057 3052 3047 3043 3039 3036 3033 3030 3028 3025 3022 3019 3016 3013 3010 3007 3005 3004 3001 3000 3000 3000 2999 2998 2998 2998 2998 2996 2997 2996 2994 2994 2992 2988 2986 2984 2982 2979 2976 2973 2970 2967
3070 3064 3057 3053 3049 3045 3041 3037 3034 3031 3028 3026 3023 3020 3017 3013 3011 3009 3007 3005 3003 3001 3001 3000 3000 3000 2999 2998 2998 2997 2995 2994 2993 2992 2989 2987 2984 2981 2977 2973 2969 2965 2960 2956
3070 3064 3058 3053 3049 3045 3041 3038 3035 3033 3029 3027 3024 3021 3018 3015 3012 3010 3008 3007 3005 3004 3003 3002 3000 3000 3000 2998 2998 2997 2995 2993 2989 2988 2985 2982 2978 2975 2969 2964 2958 2952 2948 2943
3069 3063 3058 3054 3049 3045 3041 3038 3035 3032 3032 3026 3023 3022 3019 3016 3014 3012 3010 3009 3007 3006 3004 3003 3002 3000 2999 2998 2996 2994 2992 2989 2987 2983 2980 2975 2971 2966 2959 2950 2943 2937 2929 2924
3068 3063 3057 3053 3049 3045 3042 3038 3035 3031 3028 3025 3023 3022 3019 3016 3014 3013 3011 3010 3008 3007 3005 3003 3002 3000 2999 2997 2994 2993 2991 2989 2984 2977 2972 2966 2958 2949 2941 2930 2924 2917 2911 2905
3066 3061 3056 3052 3048 3045 3042 3039 3035 3031 3029 3025 3023 3021 3020 3017 3014 3012 3011 3009 3008 3007 3005 3002 3000 2998 2998 2995 2993 2991 2988 2985 2981 2972 2959 2953 2945 2934 2927 2918 2910 2903 2897 2892
3064 3059 3054 3050 3046 3042 3040 3036 3033 3030 3028 3025 3024 3022 3018 3016 3014 3010 3008 3007 3006 3004 3003 3001 2999 2996 2994 2992 2989 2986 2981 2976 2971 2962 2952 2941 2931 2923 2915 2906 2898 2892 2886 2880
3062 3057 3051 3048 3044 3041 3038 3034 3031 3028 3030 3025 3024 3021 3017 3014 3011 3008 3005 3003 3002 3002 3001 2999 2998 2994 2991 2988 2984 2980 2972 2961 2952 2948 2941 2933 2924 2914 2905 2896 2888 2882 2876 2871
3059 3054 3049 3044 3043 3039 3037 3033 3030 3026 3025 3023 3022 3019 3016 3014 3008 3005 3003 3001 3000 2999 3000 2997 2994 2991 2989 2986 2980 2971 2963 2954 2946 2938 2932 2924 2916 2905 2896 2888 2881 2874 2868 2863
3057 3051 3047 3044 3040 3038 3035 3033 3031 3027 3024 3022 3020 3017 3013 3010 3007 3003 3002 3000 2999 2998 2998 2996 2991 2989 2987 2982 2974 2965 2958 2950 2942 2934 2925 2916 2907 2899 2890 2883 2876 2870 2864 2859
3054 3050 3044 3041 3039 3037 3036 3033 3030 3027 3025 3022 3017 3014 3010 3007 3004 3002 3001 3000 2999 2998 2996 2994 2991 2989 2984 2976 2968 2959 2952 2945 2938 2930 2922 2914 2904 2895 2886 2879 2872 2866 2861 2856
3050 3046 3042 3041 3040 3038 3034 3033 3030 3027 3023 3019 3016 3012 3008 3005 3004 3001 3000 2999 2999 2997 2995 2993 2991 2986 2978 2970 2962 2955 2948 2941 2933 2926 2919 2911 2903 2893 2885 2877 2870 2864 2859 2854
3047 3043 3041 3040 3038 3036 3034 3030 3026 3023 3020 3016 3013 3009 3007 3004 3002 3001 3000 3000 2998 2996 2995 2993 2987 2980 2972 2964 2956 2949 2943 2936 2930 2923 2915 2907 2899 2891 2883 2876 2868 2862 2857 2853
3045 3043 3041 3039 3037 3034 3030 3026 3022 3019 3016 3013 3010 3007 3006 3003 3002 3002 3001 3000 2999 2997 2994 2988 2982 2975 2967 2960 2953 2947 2940 2934 2927 2919 2911 2904 2897 2890 2882 2875 2868 2862 2856 2852
3042 3040 3038 3037 3033 3030 3025 3022 3018 3015 3012 3010 3008 3006 3004 3004 3003 3002 3001 3001 2999 2996 2990 2985 2978 2972 2964 2957 2950 2943 2937 2931 2924 2916 2909 2902 2895 2888 2880 2873 2868 2862 2857 2852
3039 3037 3035 3033 3029 3026 3022 3018 3015 3013 3011 3008 3006 3005 3004 3003 3002 3001 3000 2998 2996 2992 2987 2982 2975 2969 2962 2955 2947 2941 2935 2929 2922 2915 2908 2901 2894 2887 2881 2875 2868 2862 2856 2851